Back to catalog

NOAA 16 DEB

LostPO
NORAD 41527·DEBRIS·🇺🇸 United States

Launched Sep 21, 2000 from Vandenberg Space Force Base

Loading…

Next Passes (next 24 hours)

TLE

StaleSource: Space-Track

Epoch: Apr 24, 2023, 17:49 UTC

1 41527U 00055NB  23114.74282681  .00033716  00000-0  12278-1 0  9999
2 41527  99.0691 297.7606 0047076 242.2391 117.4013 14.32373637370173

Track NOAA 16 DEB in real time with AllMySat

Download on the App Store